Portada
METAR-TAF:

METAR-TAF

Aeroports :

Jabalpur, Índia

latitud: 23-10-54N, longitud: 80-03-31E, altitud: 495 m

Observació

L'informe es va fer fa 1 hora i 0 minuts, a les 02:00 UTC
Vent calma
Temperatura 15°C
Humitat 72%
Pressió 1016 hPa
Visibilitat: 2000 m
calitja

METAR: VAJB 120200Z 00000KT 2000 HZ NSC 15/10 Q1016

Hora: 08:30 (03:00 UTC)


TAF: manca

Observacions i pronòstics meteorològics de més de 4000 aeroports (METAR i TAF).

Les estacions disponibles són els punts grocs i vermells al mapa.

Posi el ratolí al punt desitjat per veure el nom de l'estació.

Feu clic per veure les observacions i els pronòstics meteorològics.

Per canviar el mapa: feu clic els botons verds amb una creu de color negre per apropar; al botó verd amb un guió per allunyar la imatge; o en les fletxes verdes per a mapes adjacents.


METAR-TAF: